[[{"header":{"parameterUnit":"m.s-1","parameterCategory":1,"la1":30.2991,"la2":30.254,"lo1":-89.0895,"lo2":-89.0444,"dy":0.0017,"dx":0.0017,"nx":28,"ny":28,"refTime":"2024-07-14T09:00:00:Z","depth":0,"parameterNumber":2,"parameterNumberName":"U-component_of_WINDS"},"data":[0,0,0,0,0,0,0,0,0,0,0,0,0,0,0,0,0,0,0,0,0,0,0,0,0,0,0,0,0,0,0,0,0,0,0,0,0,0,0,0,0,0,0,0,0,0,0,0,0,0,0,0,0,0,0,0,0,0,4.483,4.4831,0,4.4949,4.495,4.4951,4.4894,4.4891,4.4888,4.4886,4.5008,4.5014,4.502,0,0,0,0,0,0,0,0,0,0,0,0,0,4.4551,4.4557,4.483,4.4831,4.4833,4.4948,4.495,4.4952,4.4895,4.4891,4.4888,4.4884,4.5006,4.5014,4.5021,0,0,0,0,0,0,0,0,0,0,0,0,0,4.4671,4.4559,4.4829,4.4818,4.4818,4.4948,4.495,4.4952,4.4896,4.4891,4.4887,4.4882,4.5004,4.5013,4.5022,4.517,0,0,4.505,4.5054,0,0,0,0,0,0,0,0,4.4665,4.4682,4.4818,4.4819,4.482,4.4902,4.4897,4.5025,4.4897,4.4867,4.4885,4.488,4.4977,4.4988,4.502,4.5175,4.5181,4.5051,4.5056,4.506,4.5063,0,0,0,0,0,0,0,4.4657,4.4676,4.4877,4.482,4.4821,4.4807,4.4819,4.4921,4.4946,4.4869,4.4865,4.488,4.4976,4.5012,4.5023,4.5183,4.5051,4.5059,4.5064,4.5068,4.5458,4.5463,0,0,0,0,0,0,4.4649,4.467,4.4873,4.488,4.4729,4.4815,4.4829,4.488,4.4945,4.495,4.4883,4.4877,4.4998,4.5012,4.5027,4.5199,4.506,4.5069,4.5074,4.5454,4.546,4.5465,0,0,0,0,0,0,4.4643,4.4667,4.4868,4.4774,4.4798,4.4825,4.4883,4.4885,4.492,4.4956,4.496,4.4915,4.4995,4.5014,4.5133,4.5203,4.5073,4.5081,4.5448,4.5455,4.5462,4.5548,0,0,0,0,0,0,4.4635,4.4666,4.4723,4.4776,4.4804,4.4973,4.4888,4.4891,4.4936,4.4928,4.4986,4.4992,4.4993,4.512,4.5142,4.5213,4.5088,4.5442,4.5451,4.546,4.5539,4.5558,4.5574,0,0,0,0,0,4.4625,4.4744,4.4726,4.4751,4.4876,4.4978,4.4994,4.4992,4.4942,4.4998,4.502,4.499,4.5192,4.5132,4.5157,4.5232,4.5437,4.5449,4.5459,4.5532,4.5554,4.5573,0,0,0,0,0,0,4.47,4.4751,4.4732,4.4871,4.492,4.4968,4.504,4.5017,4.5082,4.5072,4.5068,4.5082,4.5204,4.5231,4.5163,4.5375,4.5307,4.5323,4.5353,4.5375,4.5392,4.5382,4.5096,0,0,0,0,0,4.4733,4.4812,4.4852,4.4971,4.4996,4.5014,4.5058,4.5053,4.5104,4.5124,4.5155,4.5206,4.528,4.533,4.5401,4.5543,4.5553,4.5607,4.5624,4.5638,4.5651,4.5723,4.5746,4.5501,4.5501,4.5501,0,0,4.4802,4.4839,4.4889,4.4986,4.5024,4.5104,4.5032,4.5121,4.5179,4.5138,4.5251,4.5275,4.5331,4.5461,4.552,4.5487,4.5721,4.5652,4.5662,4.5668,4.5737,4.576,4.5781,4.5508,4.5507,4.5506,0,0,4.4966,4.5004,4.5104,4.5142,4.5199,4.5209,4.5234,4.5284,4.5298,4.5411,4.538,4.545,4.558,4.5619,4.5656,4.583,4.5803,4.5854,4.5942,4.6012,4.6032,4.6049,4.6106,4.6128,4.5868,4.5868,4.5868,0,4.5044,4.5163,4.5159,4.5249,4.5291,4.5256,4.5355,4.5393,4.5471,4.55,4.5461,4.5619,4.5655,4.5791,4.5833,4.5866,4.5891,4.5846,4.6029,4.6046,4.6062,4.6117,4.6139,4.5874,4.5873,4.5872,4.5872,0,4.5253,4.5337,4.5411,4.5484,4.5535,4.563,4.5638,4.569,4.5679,4.5693,4.5806,4.5847,4.5923,4.5955,4.5947,4.6089,4.6066,4.6029,4.5959,4.6091,4.6142,4.6164,4.5881,4.5879,4.5878,4.5876,0,0,4.547,4.5536,4.5563,4.5593,4.5652,4.5715,4.5807,4.588,4.5922,4.5976,4.605,4.6159,4.6123,4.6165,4.6161,4.6223,4.6353,4.6178,4.6179,4.6205,4.6506,4.6531,4.6555,4.6335,4.634,4.6343,4.65,0,4.5635,4.5794,4.5791,4.5939,4.6012,4.5978,4.6057,4.6101,4.6115,4.6179,4.6196,4.6271,4.6221,4.6245,4.6305,4.6324,4.6412,4.6313,4.6402,4.6405,4.6385,4.6583,4.6611,4.6757,4.652,4.6524,4.6526,0,4.5849,4.5907,4.6061,4.6103,4.6134,4.6206,4.6269,4.6332,4.6379,4.6385,4.643,4.6414,4.6505,4.6434,4.6557,4.6489,4.6525,4.654,4.6546,4.6551,4.6471,4.659,4.6804,4.6824,4.6559,4.6556,4.6554,0,4.5985,4.6102,4.6208,4.6236,4.6289,4.6339,4.6364,4.6406,4.6449,4.6505,4.6531,4.6598,4.6634,4.6685,4.6687,4.6636,4.6809,4.674,4.6814,4.6813,4.685,4.6847,4.7068,4.688,4.6879,4.6879,4.6878,0,4.6168,4.6262,4.6269,4.6334,4.6437,4.6432,4.6535,4.6555,4.6592,4.6658,4.6635,4.6697,4.6698,4.6761,4.6764,4.6862,4.688,4.6885,4.6884,4.6885,4.6884,4.6906,4.6895,4.6885,4.6883,4.6882,4.6881,0,4.6337,4.6345,4.6457,4.6498,4.651,4.6584,4.6617,4.6678,4.6689,4.6773,4.6793,4.681,4.6883,4.6891,4.6977,4.6978,4.7095,4.7086,4.7079,4.7076,4.7147,4.7139,4.7388,4.7419,4.7214,4.7216,4.7218,0,4.6451,4.6522,4.6569,4.661,4.6637,4.6706,4.6748,4.6745,4.679,4.6846,4.6899,4.6969,4.7025,4.7143,4.7163,4.7227,4.7216,4.7299,4.7225,4.7223,4.7212,4.7206,4.721,4.7312,4.7314,4.7316,4.7318,0,4.6651,4.665,4.6712,4.6773,4.6823,4.6872,4.6918,4.6954,4.6956,4.7007,4.708,4.7123,4.7209,4.7277,4.734,4.7364,4.734,4.7341,4.736,4.7361,4.7352,4.7353,4.7113,4.7335,4.7333,4.7332,4.7331,4.733,4.6793,4.6852,4.6893,4.696,4.6994,4.7036,4.7093,4.711,4.7171,4.7239,4.7234,4.7313,4.7355,4.7435,4.7464,4.7525,4.7497,4.7527,4.7534,4.754,4.7545,4.7345,4.7537,4.7537,4.7536,4.7536,4.7536,0,4.6988,4.7011,4.7073,4.7136,4.7188,4.7161,4.7209,4.7254,4.7324,4.7364,4.7418,4.75,4.7566,4.759,4.7653,4.7697,4.7687,4.7713,4.7708,4.7713,4.7569,4.7543,4.7719,4.7719,4.7719,4.7719,4.7719,4.7719,4.7095,4.7192,4.7196,4.7308,4.7331,4.7408,4.7437,4.7474,4.7506,4.7597,4.7651,4.7666,4.7698,4.7763,4.7821,4.7826,4.7848,4.7878,4.7878,4.7743,4.7724,4.7706,4.7682,4.7884,4.7884,4.8016,4.8018,4.8019]},{"header":{"parameterUnit":"m.s-1","parameterCategory":1,"la1":30.2991,"la2":30.254,"lo1":-89.0895,"lo2":-89.0444,"dy":0.0017,"dx":0.0017,"nx":28,"ny":28,"refTime":"2024-07-14T09:00:00:Z","depth":0,"parameterNumber":3,"parameterNumberName":"V-component_of_WINDS"},"data":[0,0,0,0,0,0,0,0,0,0,0,0,0,0,0,0,0,0,0,0,0,0,0,0,0,0,0,0,0,0,0,0,0,0,0,0,0,0,0,0,0,0,0,0,0,0,0,0,0,0,0,0,0,0,0,0,0,0,2.4723,2.4723,0,2.4789,2.4789,2.479,2.4768,2.4766,2.4765,2.4764,2.483,2.4833,2.4836,0,0,0,0,0,0,0,0,0,0,0,0,0,2.4575,2.4578,2.4723,2.4723,2.4724,2.4788,2.4789,2.479,2.4768,2.4766,2.4765,2.4763,2.4829,2.4833,2.4837,0,0,0,0,0,0,0,0,0,0,0,0,0,2.464,2.4579,2.4722,2.4721,2.4721,2.4788,2.4789,2.4791,2.4769,2.4766,2.4764,2.4762,2.4828,2.4833,2.4837,2.4909,0,0,2.4851,2.4853,0,0,0,0,0,0,0,0,2.4636,2.4645,2.472,2.4721,2.4722,2.4768,2.4762,2.483,2.4769,2.4751,2.4764,2.4761,2.4811,2.4817,2.4834,2.4912,2.4915,2.4852,2.4855,2.4857,2.4858,0,0,0,0,0,0,0,2.4632,2.4642,2.4749,2.4721,2.4722,2.4716,2.4723,2.4775,2.4792,2.4752,2.4751,2.4759,2.4811,2.483,2.4836,2.4916,2.4852,2.4856,2.4859,2.4861,2.5054,2.5056,0,0,0,0,0,0,2.4627,2.4639,2.4747,2.4751,2.4673,2.4721,2.4728,2.4755,2.4792,2.4795,2.4761,2.4758,2.4823,2.483,2.4838,2.4923,2.4857,2.4861,2.4864,2.5052,2.5055,2.5057,0,0,0,0,0,0,2.4624,2.4637,2.4744,2.4694,2.4707,2.4725,2.4756,2.4758,2.4776,2.4798,2.4801,2.4777,2.4821,2.4831,2.4891,2.4925,2.4863,2.4867,2.5049,2.5053,2.5056,2.5096,0,0,0,0,0,0,2.462,2.4636,2.4664,2.4695,2.471,2.4797,2.4758,2.4761,2.4784,2.4781,2.4814,2.4817,2.482,2.4884,2.4896,2.4931,2.4871,2.5046,2.5051,2.5055,2.5091,2.51,2.5107,0,0,0,0,0,2.4615,2.4673,2.4666,2.4679,2.4746,2.4799,2.4808,2.4811,2.4787,2.4815,2.4829,2.4816,2.492,2.4891,2.4903,2.494,2.5044,2.5049,2.5055,2.5088,2.5098,2.5107,0,0,0,0,0,0,2.4646,2.4677,2.4669,2.474,2.4767,2.4795,2.4831,2.4822,2.4857,2.4852,2.4854,2.4861,2.4923,2.4937,2.4904,2.5011,2.4978,2.4986,2.4999,2.5009,2.5017,2.5012,2.4875,0,0,0,0,0,2.4661,2.4702,2.4727,2.4786,2.48,2.4813,2.4836,2.4836,2.4864,2.4876,2.4894,2.4921,2.496,2.4985,2.5022,2.5093,2.5099,2.5124,2.5132,2.5139,2.5146,2.5183,2.5194,2.5075,2.5075,2.5074,0,0,2.4692,2.4714,2.474,2.4793,2.4814,2.4855,2.4823,2.4869,2.4899,2.4883,2.494,2.4954,2.4985,2.505,2.508,2.5064,2.518,2.5146,2.5151,2.5154,2.5189,2.5201,2.5211,2.5078,2.5078,2.5077,0,0,2.4771,2.4792,2.4843,2.4864,2.4897,2.4905,2.4917,2.4946,2.4955,2.5013,2.5001,2.5036,2.5103,2.5125,2.5145,2.523,2.5218,2.5241,2.5284,2.532,2.5329,2.5337,2.5366,2.5377,2.5248,2.5248,2.5248,0,2.4806,2.4868,2.487,2.4917,2.494,2.4926,2.4977,2.4998,2.504,2.5056,2.5038,2.512,2.514,2.5209,2.523,2.5247,2.526,2.5238,2.5328,2.5336,2.5344,2.5371,2.5383,2.5251,2.5251,2.525,2.525,0,2.4909,2.4953,2.499,2.5031,2.5058,2.5106,2.5115,2.5142,2.5139,2.5148,2.5206,2.5229,2.527,2.5286,2.5284,2.5355,2.5344,2.5327,2.5294,2.5358,2.5384,2.5394,2.5254,2.5254,2.5253,2.5252,0,0,2.501,2.505,2.5064,2.5082,2.5115,2.5149,2.5196,2.5235,2.5258,2.5287,2.5326,2.5382,2.5366,2.5388,2.5388,2.542,2.5484,2.5398,2.5399,2.5413,2.5562,2.5574,2.5586,2.5476,2.5478,2.548,2.5559,0,2.5091,2.5174,2.5176,2.5252,2.5291,2.5278,2.5319,2.5343,2.5353,2.5387,2.5398,2.5437,2.5413,2.5426,2.5457,2.5469,2.5513,2.5464,2.5511,2.5513,2.5504,2.56,2.5614,2.5687,2.5569,2.5571,2.5572,0,2.5196,2.5228,2.5308,2.5334,2.5351,2.5388,2.5423,2.5456,2.5483,2.5488,2.5512,2.5507,2.5554,2.5519,2.5583,2.5549,2.5569,2.5577,2.558,2.5585,2.5546,2.5607,2.5711,2.5722,2.5588,2.5587,2.5586,0,2.526,2.5324,2.5379,2.5395,2.5427,2.5453,2.5468,2.5493,2.5516,2.5546,2.5561,2.5597,2.5616,2.5644,2.5648,2.5623,2.5711,2.5678,2.5716,2.5715,2.5735,2.5734,2.5843,2.5748,2.5748,2.5748,2.5748,0,2.535,2.5399,2.5408,2.5443,2.5496,2.5498,2.5551,2.5564,2.5585,2.5621,2.5611,2.5645,2.5648,2.5682,2.5685,2.5737,2.5746,2.575,2.5751,2.5751,2.575,2.5764,2.5759,2.5751,2.575,2.575,2.5749,0,2.5431,2.544,2.5499,2.5524,2.5532,2.557,2.5592,2.5624,2.5632,2.5677,2.5687,2.57,2.5739,2.5746,2.5792,2.5794,2.5856,2.5851,2.5847,2.5846,2.5883,2.588,2.6005,2.6021,2.5916,2.5917,2.5918,0,2.5488,2.5525,2.5554,2.5577,2.5593,2.5631,2.5654,2.5656,2.568,2.5713,2.5741,2.5779,2.581,2.5873,2.5886,2.5921,2.5917,2.5958,2.5922,2.5921,2.5916,2.5914,2.5917,2.5965,2.5966,2.5967,2.5968,0,2.5587,2.5589,2.5623,2.5658,2.5686,2.5713,2.574,2.5759,2.5764,2.5792,2.5832,2.5856,2.5903,2.5941,2.5975,2.5989,2.5979,2.5979,2.599,2.599,2.5986,2.5988,2.5865,2.5976,2.5975,2.5975,2.5974,2.5974,2.5657,2.5689,2.5714,2.5751,2.5771,2.5796,2.5826,2.5838,2.5872,2.591,2.5909,2.5953,2.5977,2.6022,2.6038,2.6072,2.6058,2.6074,2.6077,2.6081,2.6084,2.5981,2.6078,2.6078,2.6078,2.6077,2.6077,0,2.5755,2.577,2.5804,2.5841,2.587,2.5858,2.5886,2.5911,2.595,2.5973,2.6003,2.6049,2.6085,2.61,2.6135,2.6159,2.6155,2.6168,2.6166,2.6169,2.6095,2.6082,2.617,2.617,2.617,2.617,2.617,2.617,2.5809,2.5862,2.5866,2.5928,2.5943,2.5986,2.6002,2.6024,2.6043,2.6094,2.6124,2.6133,2.6153,2.6189,2.6221,2.6225,2.6238,2.6253,2.6254,2.6184,2.6175,2.6166,2.6153,2.6256,2.6256,2.6325,2.6326,2.6327]}]]